User: anonymous   Login
Location: Caltech
(34.1382°N, 118.1253°W)
Time: 22:26:19
(UTC-07:00)
Language:

Oscar 11 - Orbit

View from above orbital plane
View from above orbital plane
View from above satellite
View from above satellite

Ground track
Ground track

The orbit data is extracted from the following two-line orbital elements,

1 14781U 84021B   16211.88566098  .00000077  00000-0  15855-4 0  9999
2 14781  97.7458 262.5747 0008853 165.5260 194.6209 14.82770634742584
Epoch (UTC): 29 July 2016 21:15:21
Eccentricity: 0.0008853
inclination: 97.7458°
perigee height: 614 km
apogee height: 627 km
right ascension of ascending node: 262.5747°
argument of perigee: 165.5260°
revolutions per day: 14.82770634
mean anomaly at epoch: 194.6209°
orbit number at epoch: 74258

The dashed part of the orbit path shows where the satellite is in the earth's shadow,  

DLR